DW5775 Weather Reports


Display with metric or nautical units.
time (UTC)temp
F
wind
direction
speed
MPH
gust
MPH
rain 1hr
in
rain 24hr
in
rain mn
in
humidity
%
barometer
mb
20260904000050 70 119 0.0 1.0 0.00 2.92 1.35 96 1012.0
20260903234541 70 196 0.0 0.0 0.00 2.92 1.35 96 1012.0
20260903233041 70 194 0.0 1.0 0.00 2.92 1.35 96 1012.2
20260903231542 70 209 0.0 2.0 0.00 2.92 1.35 96 1012.3
20260903230046 70 158 0.0 2.0 0.00 2.92 1.35 96 1012.2
20260903224538 70 122 0.0 1.0 0.00 2.92 1.35 96 1011.4
20260903223038 70 49 0.0 3.0 0.00 2.92 1.35 96 1011.8
20260903221539 70 204 0.0 3.0 0.00 2.92 1.35 96 1012.6
20260903220037 70 226 0.0 3.0 0.00 2.92 1.35 96 1013.0
20260903214542 70 229 0.0 3.0 0.00 2.92 1.35 96 1013.4
20260903213045 70 310 0.0 0.0 0.00 2.92 1.35 96 1013.1
20260903211536 70 310 0.0 1.0 0.02 2.92 1.35 96 1013.2
20260903210041 70 310 0.0 0.0 0.06 2.92 1.35 96 1013.2
20260903204535 69 311 0.0 1.0 0.63 2.92 1.35 96 1013.0
20260903203034 69 310 0.0 2.0 0.63 2.92 1.35 96 1012.1
20260903201536 69 25 0.0 4.0 0.61 2.90 1.33 95 1012.7
20260903200034 70 321 4.0 12.0 0.56 2.85 1.28 92 1013.5
20260903194528 75 159 0.0 0.0 0.00 2.29 0.72 93 1010.9
20260903193026 75 159 0.0 0.0 0.00 2.29 0.72 92 1010.6
20260903191525 77 160 0.0 0.0 0.00 2.29 0.72 90 1010.6
20260903190024 78 159 0.0 0.0 0.00 2.29 0.72 86 1011.1
20260903184524 78 159 0.0 0.0 0.00 2.29 0.72 84 1011.1
20260903183023 78 165 0.0 0.0 0.00 2.29 0.72 87 1011.5
20260903181520 77 211 0.0 1.0 0.00 2.29 0.72 88 1011.5
20260903180020 75 221 0.0 3.0 0.00 2.29 0.72 94 1011.4
20260903174515 74 212 0.0 2.0 0.00 2.29 0.72 96 1011.4
20260903173014 72 155 0.0 1.0 0.00 2.29 0.72 96 1011.7
20260903171513 71 156 0.0 1.0 0.03 2.29 0.72 96 1011.6
20260903170013 70 139 0.0 1.0 0.26 2.29 0.72 96 1011.8
20260903164512 70 145 0.0 3.0 0.26 2.29 0.72 96 1012.2
20260903163012 69 135 0.0 2.0 0.26 2.27 0.71 96 1012.0
20260903161511 69 312 1.0 3.0 0.25 2.25 0.69 96 1012.2
20260903160010 70 325 0.0 4.0 0.02 2.02 0.46 96 1013.7
20260903154509 73 308 2.0 10.0 0.02 2.02 0.46 96 1014.2
20260903153007 75 87 0.0 0.0 0.01 2.02 0.45 96 1013.3
20260903151505 75 87 0.0 0.0 0.00 2.00 0.44 96 1012.5
20260903150008 75 203 0.0 0.0 0.00 2.00 0.44 96 1012.1
20260903144511 75 203 0.0 0.0 0.00 2.00 0.44 96 1011.9
20260903143004 76 203 0.0 0.0 0.00 2.00 0.44 96 1012.3
20260903141502 76 203 0.0 0.0 0.00 2.00 0.44 96 1011.8
20260903140005 75 188 0.0 0.0 0.00 2.00 0.44 97 1011.8
20260903134605 75 188 0.0 0.0 0.00 2.00 0.44 97 1011.9
20260903133102 74 188 0.0 1.0 0.00 2.00 0.44 96 1012.1
20260903131557 74 150 0.0 0.0 0.00 2.00 0.44 97 1012.2
20260903130054 73 150 0.0 0.0 0.00 2.00 0.44 97 1012.1
20260903124555 73 150 0.0 0.0 0.00 2.00 0.44 97 1012.3
20260903123049 71 150 0.0 0.0 0.00 2.00 0.44 97 1012.6
20260903121548 70 150 0.0 0.0 0.00 2.00 0.44 97 1012.5
20260903120051 69 150 0.0 0.0 0.00 2.00 0.44 97 1012.4
20260903114549 69 150 0.0 0.0 0.00 2.00 0.44 97 1012.3
20260903113047 69 149 0.0 0.0 0.00 2.00 0.44 97 1012.3
20260903111552 68 149 0.0 0.0 0.00 2.00 0.44 97 1012.2
20260903110046 68 150 0.0 0.0 0.00 2.00 0.44 97 1012.1
20260903104606 68 150 0.0 0.0 0.00 2.00 0.44 97 1011.9
20260903103056 68 150 0.0 0.0 0.00 2.00 0.44 97 1011.9
20260903101549 68 149 0.0 0.0 0.00 2.00 0.44 96 1011.9
20260903100043 68 149 0.0 0.0 0.00 2.00 0.44 96 1011.9
20260903094546 68 149 0.0 0.0 0.00 2.00 0.44 96 1011.8
20260903093048 68 149 0.0 0.0 0.00 2.00 0.44 96 1011.7
20260903091544 68 149 0.0 0.0 0.00 2.00 0.44 96 1011.6
20260903090040 67 150 0.0 0.0 0.00 2.00 0.44 96 1011.5
20260903084545 68 150 0.0 0.0 0.00 2.00 0.44 96 1011.3
20260903083037 68 150 0.0 0.0 0.00 2.00 0.44 96 1011.2
20260903081536 68 150 0.0 0.0 0.39 2.00 0.44 96 1011.2
20260903080034 68 150 0.0 2.0 0.39 2.00 0.44 96 1011.2
20260903074533 68 23 0.0 1.0 0.39 2.00 0.44 96 1010.9
20260903073036 69 37 0.0 12.0 0.39 2.00 0.44 96 1011.2
20260903071532 70 186 0.0 1.0 0.05 1.62 0.05 96 1011.0
20260903070029 70 105 0.0 1.0 0.05 1.62 0.05 96 1011.2
20260903064526 70 8 0.0 0.0 0.05 1.62 0.05 96 1011.3
20260903063026 70 8 0.0 4.0 0.05 1.62 0.05 96 1011.2
20260903061528 71 321 0.0 1.0 0.00 1.57 0.00 96 1010.6
20260903060022 70 139 0.0 0.0 0.00 1.57 0.00 96 1011.3
20260903054522 70 140 0.0 0.0 0.00 1.57 0.00 96 1011.3
20260903053022 70 139 0.0 0.0 0.00 1.57 0.00 96 1011.2
20260903051519 70 140 0.0 0.0 0.00 1.57 0.00 96 1011.1
20260903050036 70 140 0.0 0.0 0.00 1.57 0.00 96 1011.1
20260903044517 70 139 0.0 0.0 0.08 1.57 0.00 96 1011.2
20260903043016 70 139 0.0 0.0 0.19 1.57 0.00 96 1011.0
20260903041519 70 139 0.0 1.0 0.37 1.57 0.00 95 1011.3
20260903040011 69 119 0.0 2.0 1.02 1.57 0.00 95 1010.9
20260903034510 68 98 0.0 4.0 1.35 1.48 1.48 95 1011.5
20260903033010 68 158 0.0 3.0 1.37 1.38 1.38 94 1011.4
20260903031507 69 124 0.0 17.0 1.19 1.19 1.19 93 1012.2
20260903030003 73 295 1.0 8.0 0.51 0.51 0.51 87 1012.0
20260903024502 79 286 0.0 3.0 0.12 0.12 0.12 88 1009.9
20260903023108 82 31 0.0 1.0 0.01 0.01 0.01 83 1009.0
20260903021559 83 69 0.0 0.0 0.00 0.00 0.00 77 1009.4
20260903020106 83 69 0.0 0.0 0.00 0.00 0.00 75 1010.3
20260903014557 82 69 0.0 0.0 0.00 0.00 0.00 76 1010.2
20260903013058 83 69 0.0 1.0 0.00 0.00 0.00 75 1010.1
20260903011558 83 69 0.0 0.0 0.00 0.00 0.00 74 1010.1
20260903010058 84 69 0.0 0.0 0.00 0.00 0.00 72 1010.0
20260903004555 84 69 0.0 0.0 0.00 0.00 0.00 70 1009.8
20260903003055 85 70 0.0 0.0 0.00 0.00 0.00 68 1009.8
20260903001607 86 69 0.0 0.0 0.00 0.00 0.00 66 1009.6